Regional Weather Roundup
Issued by NWS Goodland, KS

Home | Current Version | Previous Version | Graphics & Text | Print | Product List | Glossary On
Versions: 1 2 3 4 5 6 7 8 9 10 11 12 13 14 15 16 17 18 19 20 21 22 23 24 25 26 27 28 29 30 31 32 33 34 35 36 37 38 39 40 41 42 43 44 45 46 47 48 49 50
000
ASUS43 KGLD 021059
RWRGLD

GOODLAND FORECAST AREA HOURLY WEATHER ROUNDUP
NATIONAL WEATHER SERVICE GOODLAND KS
500 AM MDT SUN AUG 02 2015

...OFFICIAL OBSERVATIONS...

CITY           SKY/WX    TMP DP  RH WIND       PRES   REMARKS
GOODLAND KS    CLEAR     65  63  93 SW5       29.99S
HILL CITY KS   CLEAR     69  66  90 SW3       29.94S
IMPERIAL NEB   CLEAR     63  58  83 CALM      29.96S
MCCOOK NEB     CLEAR     66  60  81 CALM      29.93S
AKRON CO       PTCLDY    63  58  83 E5        30.04F
BURLINGTON CO  CLEAR     64  61  90 S6        30.02S
LIMON CO       PTCLDY    56  50  80 N6        30.09S
$$

...UNOFFICIAL OBSERVATIONS...

CITY           SKY/WX    TMP DP  RH WIND       PRES   REMARKS
SHARON SPRINGS   N/A     67  65  93 N6          N/A
KIT CARSON CO    N/A     64  60  88 MISG        N/A
YUMA CO          N/A     60  57  91 CALM        N/A
$$


USA.gov is the U.S. government's official web portal to all federal, state and local government web resources and services.